FW7611 Weather Reports


Display with metric or nautical units.
time (UTC)temp
F
wind
direction
speed
MPH
gust
MPH
rain 1hr
in
rain 24hr
in
rain mn
in
humidity
%
barometer
mb
20260510023051 64 0 0.0 0.0 0.00 0.00 0.00 82 1014.1
20260510021544 65 0 0.0 2.0 0.00 0.00 0.00 80 1013.8
20260510020042 65 217 0.0 2.0 0.00 0.00 0.00 79 1013.6
20260510014541 66 0 0.0 2.0 0.00 0.00 0.00 77 1013.8
20260510013038 67 199 0.0 2.0 0.00 0.00 0.00 76 1013.4
20260510011543 67 222 0.0 2.0 0.00 0.00 0.00 74 1013.2
20260510010037 68 206 0.0 3.0 0.00 0.00 0.00 74 1012.8
20260510004542 68 240 2.0 9.0 0.00 0.00 0.00 72 1012.5
20260510003041 69 202 0.0 2.0 0.00 0.00 0.00 71 1012.1
20260510001540 69 222 0.0 2.0 0.00 0.00 0.00 70 1012.2
20260510000037 70 0 0.0 3.0 0.00 0.00 0.00 68 1012.0
20260509234536 70 202 0.0 4.0 0.00 0.00 0.00 68 1012.1
20260509233041 70 220 1.0 4.0 0.00 0.00 0.00 66 1011.9
20260509231546 71 262 2.0 5.0 0.00 0.00 0.00 65 1011.5
20260509230040 71 269 1.0 5.0 0.00 0.00 0.00 65 1011.5
20260509224537 71 222 1.0 6.0 0.00 0.00 0.00 63 1011.2
20260509223040 72 275 1.0 6.0 0.00 0.00 0.00 62 1011.0
20260509221539 72 313 1.0 2.0 0.00 0.00 0.00 62 1011.2
20260509220038 72 240 1.0 5.0 0.00 0.00 0.00 62 1011.1
20260509214536 73 192 1.0 7.0 0.00 0.00 0.00 60 1011.1
20260509213057 73 242 2.0 10.0 0.00 0.00 0.00 58 1011.1
20260509211606 73 253 1.0 4.0 0.00 0.00 0.00 59 1011.0
20260509210040 74 274 2.0 6.0 0.00 0.00 0.00 59 1010.8
20260509204544 73 205 3.0 7.0 0.00 0.00 0.00 58 1010.7
20260509203042 72 241 2.0 10.0 0.00 0.00 0.00 62 1010.9
20260509201534 72 268 4.0 10.0 0.00 0.00 0.00 63 1010.8
20260509200035 72 234 1.0 8.0 0.00 0.00 0.00 62 1011.1
20260509194543 73 252 1.0 11.0 0.00 0.00 0.00 62 1011.1
20260509193040 72 257 3.0 11.0 0.00 0.00 0.00 63 1011.5
20260509191540 72 265 2.0 9.0 0.00 0.00 0.00 62 1011.7
20260509190047 72 261 1.0 10.0 0.00 0.00 0.00 62 1011.5
20260509184539 71 259 1.0 5.0 0.00 0.00 0.00 61 1011.5
20260509183037 70 235 2.0 9.0 0.00 0.00 0.00 63 1011.7
20260509181537 70 263 1.0 4.0 0.00 0.00 0.00 63 1011.9
20260509180037 71 300 1.0 4.0 0.00 0.00 0.00 63 1012.2
20260509174536 74 252 1.0 7.0 0.00 0.00 0.00 55 1012.1
20260509173041 70 274 1.0 5.0 0.00 0.00 0.00 60 1012.2
20260509171541 71 259 2.0 9.0 0.00 0.00 0.00 61 1012.3
20260509170040 70 220 2.0 8.0 0.00 0.00 0.00 62 1012.5
20260509164536 70 227 1.0 10.0 0.00 0.00 0.00 65 1012.7
20260509163054 69 261 1.0 8.0 0.00 0.00 0.00 67 1013.2
20260509161542 68 297 1.0 5.0 0.00 0.00 0.00 68 1013.3
20260509160042 67 221 1.0 2.0 0.00 0.00 0.00 70 1013.6
20260509154539 66 213 2.0 6.0 0.00 0.00 0.00 72 1013.5
20260509153036 67 198 1.0 3.0 0.00 0.00 0.00 71 1013.5
20260509151536 66 229 1.0 7.0 0.00 0.00 0.00 72 1013.6
20260509150042 66 175 3.0 6.0 0.00 0.00 0.00 72 1013.6
20260509144540 64 243 1.0 5.0 0.00 0.00 0.00 76 1013.8
20260509143040 64 161 3.0 7.0 0.00 0.00 0.00 75 1013.8
20260509141537 63 0 0.0 5.0 0.00 0.00 0.00 77 1013.8
20260509140045 63 0 1.0 6.0 0.00 0.00 0.00 78 1013.8
20260509134548 61 188 1.0 3.0 0.00 0.00 0.00 80 1013.9
20260509133035 60 185 2.0 6.0 0.00 0.00 0.00 82 1014.1
20260509131542 58 171 2.0 6.0 0.00 0.00 0.00 82 1014.7
20260509130034 57 199 0.0 4.0 0.00 0.00 0.00 83 1015.1
20260509124540 55 159 0.0 3.0 0.00 0.00 0.00 84 1015.0
20260509123037 54 212 0.0 3.0 0.00 0.00 0.00 84 1015.2
20260509121539 53 0 0.0 2.0 0.00 0.00 0.00 86 1014.8
20260509120036 52 0 0.0 0.0 0.00 0.00 0.00 88 1014.4
20260509114535 51 0 0.0 0.0 0.00 0.00 0.00 89 1014.6
20260509113044 50 0 0.0 0.0 0.00 0.00 0.00 91 1014.5
20260509111536 49 0 0.0 0.0 0.00 0.00 0.00 91 1014.5
20260509110037 48 0 0.0 0.0 0.00 0.00 0.00 92 1014.3
20260509104536 48 0 0.0 0.0 0.00 0.00 0.00 92 1014.4
20260509103041 47 0 0.0 0.0 0.00 0.00 0.00 91 1014.0
20260509101541 47 0 0.0 0.0 0.00 0.00 0.00 90 1013.8
20260509100040 48 0 0.0 0.0 0.00 0.00 0.00 91 1013.6
20260509094540 48 0 0.0 0.0 0.00 0.00 0.00 91 1013.7
20260509093045 47 0 0.0 0.0 0.00 0.00 0.00 90 1013.6
20260509091541 48 0 0.0 0.0 0.00 0.00 0.00 89 1013.7
20260509090042 48 0 0.0 0.0 0.00 0.00 0.00 88 1013.5
20260509084547 49 0 0.0 0.0 0.00 0.00 0.00 87 1013.9
20260509083039 49 0 0.0 0.0 0.00 0.00 0.00 87 1014.1
20260509081537 49 0 0.0 0.0 0.00 0.00 0.00 86 1014.2
20260509080053 50 0 0.0 0.0 0.00 0.00 0.00 86 1014.2
20260509074541 50 0 0.0 0.0 0.00 0.00 0.00 86 1014.1
20260509073119 50 0 0.0 0.0 0.00 0.00 0.00 86 1014.0
20260509071542 50 0 0.0 0.0 0.00 0.00 0.00 83 1014.3
20260509070037 51 0 0.0 0.0 0.00 0.00 0.00 82 1014.6
20260509064547 52 0 0.0 0.0 0.00 0.00 0.00 80 1014.7
20260509063040 53 0 0.0 0.0 0.00 0.00 0.00 78 1014.9
20260509061550 53 0 0.0 0.0 0.00 0.00 0.00 77 1015.1
20260509060041 53 217 0.0 2.0 0.00 0.00 0.00 76 1015.3
20260509054543 53 0 0.0 2.0 0.00 0.00 0.00 76 1015.5
20260509053037 54 0 0.0 2.0 0.00 0.00 0.00 73 1015.6
20260509051545 54 0 0.0 2.0 0.00 0.00 0.00 73 1015.9
20260509050041 54 0 0.0 0.0 0.00 0.00 0.00 72 1016.0
20260509044541 54 0 0.0 0.0 0.00 0.00 0.00 73 1016.1
20260509043043 54 0 0.0 0.0 0.00 0.00 0.00 69 1016.1
20260509041543 55 0 0.0 2.0 0.00 0.00 0.00 68 1016.2
20260509040042 55 0 0.0 2.0 0.00 0.00 0.00 70 1016.1
20260509034540 55 180 0.0 0.0 0.00 0.00 0.00 68 1016.3
20260509033040 55 0 0.0 1.0 0.00 0.00 0.00 67 1016.1
20260509031538 55 0 0.0 0.0 0.00 0.00 0.00 71 1016.1
20260509030045 55 0 0.0 1.0 0.00 0.00 0.00 69 1016.2
20260509024541 55 0 0.0 0.0 0.00 0.00 0.00 68 1016.4